CW1466 Weather Reports


time (UTC)temp
C
wind
direction
speed
KPH
gust
KPH
rain 1hr
cm
rain 24hr
cm
rain mn
cm
humidity
%
barometer
mb
20260507143050 23 91 0.0 1.6 0.00 0.00 0.00 28 1014.2
20260507142543 22 0 0.0 4.8 0.00 0.00 0.00 30 1014.1
20260507142043 22 72 0.0 4.8 0.00 0.00 0.00 30 1014.1
20260507141557 22 0 0.0 8.0 0.00 0.00 0.00 30 1014.1
20260507141042 21 0 0.0 8.0 0.00 0.00 0.00 31 1014.1
20260507140542 21 0 0.0 8.0 0.00 0.00 0.00 31 1014.2
20260507140056 21 52 0.0 4.8 0.00 0.00 0.00 32 1014.1
20260507135542 21 64 0.0 4.8 0.00 0.00 0.00 32 1014.0
20260507135042 21 66 0.0 4.8 0.00 0.00 0.00 31 1013.9
20260507134556 21 0 0.0 1.6 0.00 0.00 0.00 32 1013.9
20260507134042 20 0 0.0 1.6 0.00 0.00 0.00 32 1013.8
20260507133542 21 0 0.0 1.6 0.00 0.00 0.00 31 1013.8
20260507133053 21 0 0.0 3.2 0.00 0.00 0.00 31 1013.7
20260507132544 20 83 0.0 3.2 0.00 0.00 0.00 31 1013.7
20260507132041 20 0 0.0 1.6 0.00 0.00 0.00 31 1013.7
20260507131600 20 0 0.0 1.6 0.00 0.00 0.00 31 1013.7
20260507131042 20 0 0.0 1.6 0.00 0.00 0.00 31 1013.7
20260507130547 20 0 0.0 1.6 0.00 0.00 0.00 32 1013.6
20260507130100 19 0 0.0 0.0 0.00 0.00 0.00 32 1013.6
20260507125542 19 0 0.0 0.0 0.00 0.00 0.00 32 1013.5
20260507125043 18 0 0.0 0.0 0.00 0.00 0.00 32 1013.5
20260507124554 18 0 0.0 1.6 0.00 0.00 0.00 32 1013.5
20260507124045 18 0 0.0 1.6 0.00 0.00 0.00 32 1013.3
20260507123542 18 0 0.0 1.6 0.00 0.00 0.00 32 1013.5
20260507123107 18 0 0.0 1.6 0.00 0.00 0.00 32 1013.5
20260507122545 18 0 0.0 1.6 0.00 0.00 0.00 32 1013.4
20260507122045 18 0 0.0 3.2 0.00 0.00 0.00 32 1013.4
20260507121605 18 0 0.0 3.2 0.00 0.00 0.00 32 1013.4
20260507121044 18 0 0.0 3.2 0.00 0.00 0.00 33 1013.3
20260507120541 18 0 0.0 3.2 0.00 0.00 0.00 33 1013.3
20260507120107 18 0 0.0 3.2 0.00 0.00 0.00 33 1013.4
20260507115542 18 0 0.0 4.8 0.00 0.00 0.00 33 1013.4
20260507115042 18 0 0.0 4.8 0.00 0.00 0.00 33 1013.5
20260507114549 18 0 0.0 3.2 0.00 0.00 0.00 33 1013.5
20260507114043 18 6 0.0 3.2 0.00 0.00 0.00 33 1013.5
20260507113542 18 0 0.0 0.0 0.00 0.00 0.00 33 1013.6
20260507113059 18 0 0.0 0.0 0.00 0.00 0.00 34 1013.6
20260507112541 18 0 0.0 1.6 0.00 0.00 0.00 33 1013.7
20260507112042 18 0 0.0 1.6 0.00 0.00 0.00 33 1013.7
20260507111558 18 313 0.0 1.6 0.00 0.00 0.00 33 1013.6
20260507111042 18 0 0.0 0.0 0.00 0.00 0.00 34 1013.6
20260507110538 18 0 0.0 0.0 0.00 0.00 0.00 33 1013.7
20260507110058 18 0 0.0 0.0 0.00 0.00 0.00 33 1013.8
20260507105537 18 0 0.0 0.0 0.00 0.00 0.00 32 1013.8
20260507105038 18 0 0.0 0.0 0.00 0.00 0.00 32 1013.7
20260507104547 19 0 0.0 1.6 0.00 0.00 0.00 31 1013.8
20260507104042 19 0 0.0 1.6 0.00 0.00 0.00 31 1013.9
20260507103542 19 0 0.0 1.6 0.00 0.00 0.00 30 1014.0
20260507103054 20 0 0.0 3.2 0.00 0.00 0.00 30 1013.9
20260507102541 20 0 0.0 6.4 0.00 0.00 0.00 29 1014.1
20260507102042 20 0 0.0 6.4 0.00 0.00 0.00 29 1014.0
20260507101550 20 0 0.0 4.8 0.00 0.00 0.00 30 1014.1
20260507101042 20 0 0.0 3.2 0.00 0.00 0.00 30 1014.0
20260507100540 20 0 0.0 1.6 0.00 0.00 0.00 30 1014.1
20260507100049 19 0 0.0 3.2 0.00 0.00 0.00 31 1014.0
20260507095541 19 0 0.0 3.2 0.00 0.00 0.00 32 1014.0
20260507095041 18 86 0.0 1.6 0.00 0.00 0.00 34 1014.0
20260507094548 18 0 0.0 0.0 0.00 0.00 0.00 35 1014.1
20260507094041 18 0 0.0 0.0 0.00 0.00 0.00 34 1014.0
20260507093538 18 0 0.0 0.0 0.00 0.00 0.00 34 1014.0
20260507093056 18 0 0.0 0.0 0.00 0.00 0.00 34 1014.0
20260507092542 18 0 0.0 0.0 0.00 0.00 0.00 33 1014.1
20260507092042 18 0 0.0 0.0 0.00 0.00 0.00 33 1014.0
20260507091607 18 0 0.0 0.0 0.00 0.00 0.00 33 1014.0
20260507091042 19 0 0.0 0.0 0.00 0.00 0.00 32 1014.0
20260507090543 19 0 0.0 0.0 0.00 0.00 0.00 32 1014.1
20260507090055 19 0 0.0 1.6 0.00 0.00 0.00 32 1014.1
20260507085543 19 0 0.0 1.6 0.00 0.00 0.00 31 1014.1
20260507085042 20 0 0.0 1.6 0.00 0.00 0.00 31 1014.1
20260507084554 20 0 0.0 1.6 0.00 0.00 0.00 30 1014.2
20260507084042 20 321 0.0 0.0 0.00 0.00 0.00 30 1014.0
20260507083541 20 0 0.0 0.0 0.00 0.00 0.00 29 1014.0
20260507083050 20 0 0.0 0.0 0.00 0.00 0.00 30 1014.1
20260507082540 20 0 0.0 0.0 0.00 0.00 0.00 29 1014.2
20260507082044 20 0 0.0 1.6 0.00 0.00 0.00 29 1014.2
20260507081555 20 0 0.0 1.6 0.00 0.00 0.00 29 1014.3
20260507081041 20 0 0.0 1.6 0.00 0.00 0.00 29 1014.2
20260507080542 20 0 0.0 0.0 0.00 0.00 0.00 29 1014.3
20260507080049 20 0 0.0 0.0 0.00 0.00 0.00 29 1014.4
20260507075542 20 0 0.0 1.6 0.00 0.00 0.00 29 1014.2
20260507075043 20 0 0.0 3.2 0.00 0.00 0.00 29 1014.3
20260507074551 21 0 0.0 4.8 0.00 0.00 0.00 29 1014.2
20260507074041 21 214 0.0 4.8 0.00 0.00 0.00 29 1014.2
20260507073541 21 206 0.0 1.6 0.00 0.00 0.00 29 1014.3
20260507073050 21 211 0.0 3.2 0.00 0.00 0.00 28 1014.3
20260507072538 21 215 0.0 4.8 0.00 0.00 0.00 28 1014.2
20260507072040 21 208 1.6 4.8 0.00 0.00 0.00 27 1014.2
20260507071555 21 214 0.0 1.6 0.00 0.00 0.00 26 1014.3
20260507071043 21 0 0.0 1.6 0.00 0.00 0.00 27 1014.2
20260507070541 21 203 0.0 1.6 0.00 0.00 0.00 27 1014.2
20260507070100 21 0 0.0 1.6 0.00 0.00 0.00 27 1014.2
20260507065541 22 0 0.0 4.8 0.00 0.00 0.00 26 1014.4
20260507065041 22 0 0.0 4.8 0.00 0.00 0.00 26 1014.3
20260507064552 22 241 0.0 4.8 0.00 0.00 0.00 26 1014.2
20260507064043 22 257 0.0 3.2 0.00 0.00 0.00 26 1014.4
20260507063541 21 0 0.0 1.6 0.00 0.00 0.00 27 1014.3
20260507063055 21 273 0.0 3.2 0.00 0.00 0.00 27 1014.4
20260507062541 21 0 0.0 3.2 0.00 0.00 0.00 27 1014.5
20260507062041 21 267 0.0 3.2 0.00 0.00 0.00 28 1014.4
20260507061552 21 0 0.0 0.0 0.00 0.00 0.00 28 1014.5
20260507061041 21 0 0.0 0.0 0.00 0.00 0.00 29 1014.6
20260507060547 21 0 0.0 0.0 0.00 0.00 0.00 29 1014.5
20260507055544 21 0 0.0 0.0 0.00 0.00 0.00 28 1014.5
20260507055040 21 0 0.0 0.0 0.00 0.00 0.00 28 1014.5
20260507054555 22 0 0.0 1.6 0.00 0.00 0.00 28 1014.6
20260507054042 22 0 0.0 1.6 0.00 0.00 0.00 27 1014.5
20260507053542 22 0 0.0 4.8 0.00 0.00 0.00 27 1014.4
20260507053054 22 0 0.0 4.8 0.00 0.00 0.00 27 1014.4
20260507052543 22 251 0.0 4.8 0.00 0.00 0.00 28 1014.4
20260507052042 22 0 0.0 4.8 0.00 0.00 0.00 28 1014.3
20260507051550 22 0 0.0 3.2 0.00 0.00 0.00 27 1014.3
20260507051041 23 269 0.0 0.0 0.00 0.00 0.00 27 1014.4
20260507050543 23 0 0.0 1.6 0.00 0.00 0.00 26 1014.2
20260507050053 23 0 0.0 3.2 0.00 0.00 0.00 25 1014.3
20260507045543 23 213 0.0 3.2 0.00 0.00 0.00 25 1014.2
20260507045041 23 231 0.0 6.4 0.00 0.00 0.00 24 1014.1
20260507044551 23 0 1.6 6.4 0.00 0.00 0.00 24 1014.2
20260507044042 24 217 0.0 4.8 0.00 0.00 0.00 24 1014.0
20260507043541 24 0 1.6 4.8 0.00 0.00 0.00 24 1014.0
20260507043053 24 252 1.6 4.8 0.00 0.00 0.00 24 1013.9
20260507042541 24 256 0.0 4.8 0.00 0.00 0.00 24 1013.9
20260507042043 24 228 0.0 3.2 0.00 0.00 0.00 24 1013.9
20260507041551 24 205 0.0 6.4 0.00 0.00 0.00 25 1013.8
20260507041042 24 219 1.6 6.4 0.00 0.00 0.00 24 1013.7
20260507040542 24 236 1.6 6.4 0.00 0.00 0.00 24 1013.7
20260507040051 25 223 0.0 6.4 0.00 0.00 0.00 24 1013.6
20260507035541 25 271 0.0 6.4 0.00 0.00 0.00 24 1013.5
20260507035041 25 268 0.0 6.4 0.00 0.00 0.00 24 1013.4
20260507034557 25 266 0.0 6.4 0.00 0.00 0.00 23 1013.4
20260507034041 25 272 0.0 3.2 0.00 0.00 0.00 23 1013.4
20260507033542 25 239 0.0 3.2 0.00 0.00 0.00 23 1013.2
20260507033051 25 281 0.0 4.8 0.00 0.00 0.00 23 1013.2
20260507032542 25 248 0.0 4.8 0.00 0.00 0.00 23 1013.1
20260507032042 25 282 0.0 4.8 0.00 0.00 0.00 23 1013.0
20260507031546 25 288 1.6 6.4 0.00 0.00 0.00 23 1012.9
20260507031042 26 0 1.6 9.7 0.00 0.00 0.00 23 1012.9
20260507030542 26 293 1.6 9.7 0.00 0.00 0.00 23 1012.9
20260507030051 26 257 3.2 9.7 0.00 0.00 0.00 23 1012.8
20260507025545 26 272 3.2 8.0 0.00 0.00 0.00 23 1012.8
20260507025042 26 285 4.8 8.0 0.00 0.00 0.00 22 1012.6
20260507024558 26 243 3.2 8.0 0.00 0.00 0.00 22 1012.8
20260507024040 26 290 3.2 6.4 0.00 0.00 0.00 22 1012.7
20260507023541 26 281 1.6 6.4 0.00 0.00 0.00 21 1012.5
20260507023054 26 238 0.0 8.0 0.00 0.00 0.00 21 1012.5
20260507022542 26 184 0.0 8.0 0.00 0.00 0.00 21 1012.4
20260507022042 27 229 1.6 8.0 0.00 0.00 0.00 21 1012.4
20260507021554 27 0 0.0 4.8 0.00 0.00 0.00 21 1012.4
20260507021040 27 275 1.6 6.4 0.00 0.00 0.00 20 1012.4
20260507020545 27 236 1.6 6.4 0.00 0.00 0.00 20 1012.4
20260507020054 27 239 1.6 8.0 0.00 0.00 0.00 20 1012.4
20260507015540 27 219 1.6 9.7 0.00 0.00 0.00 20 1012.4
20260507015040 28 201 3.2 11.3 0.00 0.00 0.00 20 1012.4
20260507014551 28 236 6.4 11.3 0.00 0.00 0.00 19 1012.4
20260507014040 28 268 1.6 9.7 0.00 0.00 0.00 19 1012.4
20260507013543 28 243 3.2 12.9 0.00 0.00 0.00 19 1012.3
20260507013048 28 229 4.8 12.9 0.00 0.00 0.00 19 1012.4
20260507012545 28 221 3.2 12.9 0.00 0.00 0.00 19 1012.3
20260507012041 28 202 3.2 12.9 0.00 0.00 0.00 19 1012.3
20260507011553 28 295 3.2 12.9 0.00 0.00 0.00 19 1012.2
20260507011040 28 197 6.4 12.9 0.00 0.00 0.00 19 1012.2
20260507010541 28 295 4.8 12.9 0.00 0.00 0.00 19 1012.2
20260507010106 28 230 4.8 16.1 0.00 0.00 0.00 19 1012.3
20260507005542 28 283 6.4 16.1 0.00 0.00 0.00 19 1012.3
20260507005041 28 210 4.8 11.3 0.00 0.00 0.00 19 1012.3
20260507004547 28 253 4.8 11.3 0.00 0.00 0.00 19 1012.3
20260507004041 28 202 6.4 14.5 0.00 0.00 0.00 19 1012.2
20260507003542 28 220 3.2 14.5 0.00 0.00 0.00 19 1012.2
20260507003053 28 281 6.4 14.5 0.00 0.00 0.00 19 1012.4
20260507002540 29 219 3.2 14.5 0.00 0.00 0.00 19 1012.4
20260507002041 28 191 4.8 14.5 0.00 0.00 0.00 19 1012.4
20260507001556 29 262 4.8 9.7 0.00 0.00 0.00 19 1012.3
20260507001043 28 215 1.6 12.9 0.00 0.00 0.00 19 1012.4
20260507000541 28 248 6.4 12.9 0.00 0.00 0.00 20 1012.5
20260507000056 28 280 1.6 9.7 0.00 0.00 0.00 20 1012.5
20260506235542 28 177 4.8 9.7 0.00 0.00 0.00 20 1012.4
20260506235040 28 226 4.8 16.1 0.00 0.00 0.00 20 1012.3
20260506234616 28 251 4.8 16.1 0.00 0.00 0.00 20 1012.4
20260506234041 28 290 8.0 14.5 0.00 0.00 0.00 20 1012.4
20260506233541 28 287 4.8 11.3 0.00 0.00 0.00 20 1012.7
20260506233059 29 259 4.8 11.3 0.00 0.00 0.00 20 1012.7
20260506232540 28 125 3.2 12.9 0.00 0.00 0.00 20 1012.6
20260506232041 29 229 4.8 12.9 0.00 0.00 0.00 20 1012.8
20260506231553 28 152 1.6 11.3 0.00 0.00 0.00 20 1012.8
20260506231041 28 285 6.4 11.3 0.00 0.00 0.00 20 1012.9
20260506230540 28 221 3.2 12.9 0.00 0.00 0.00 21 1013.0
20260506230054 28 148 3.2 12.9 0.00 0.00 0.00 20 1013.0
20260506225540 29 255 3.2 12.9 0.00 0.00 0.00 20 1013.1
20260506225044 28 300 4.8 12.9 0.00 0.00 0.00 20 1013.1
20260506224553 28 175 3.2 9.7 0.00 0.00 0.00 21 1013.2
20260506224039 28 176 4.8 16.1 0.00 0.00 0.00 21 1013.2
20260506223540 28 270 6.4 16.1 0.00 0.00 0.00 20 1013.2
20260506223101 28 260 3.2 11.3 0.00 0.00 0.00 21 1013.3
20260506222542 28 233 1.6 19.3 0.00 0.00 0.00 20 1013.3
20260506222042 28 137 6.4 19.3 0.00 0.00 0.00 21 1013.4
20260506221600 28 232 4.8 12.9 0.00 0.00 0.00 21 1013.5
20260506221039 28 254 1.6 8.0 0.00 0.00 0.00 20 1013.6
20260506220540 28 274 1.6 8.0 0.00 0.00 0.00 20 1013.6
20260506220052 28 214 0.0 12.9 0.00 0.00 0.00 20 1013.6
20260506215540 28 254 1.6 12.9 0.00 0.00 0.00 20 1013.7
20260506215042 28 269 3.2 12.9 0.00 0.00 0.00 20 1013.7
20260506214549 28 347 3.2 11.3 0.00 0.00 0.00 20 1013.9
20260506214040 28 287 4.8 17.7 0.00 0.00 0.00 21 1014.0
20260506213541 28 130 4.8 17.7 0.00 0.00 0.00 20 1014.3
20260506213050 28 240 4.8 12.9 0.00 0.00 0.00 21 1014.2
20260506212540 28 297 6.4 11.3 0.00 0.00 0.00 20 1014.4
20260506212040 28 219 4.8 11.3 0.00 0.00 0.00 21 1014.3
20260506211554 28 274 1.6 16.1 0.00 0.00 0.00 21 1014.4
20260506211040 28 226 3.2 16.1 0.00 0.00 0.00 21 1014.6
20260506210541 28 319 8.0 16.1 0.00 0.00 0.00 20 1014.7
20260506210052 28 150 1.6 8.0 0.00 0.00 0.00 20 1014.5
20260506205540 28 337 1.6 6.4 0.00 0.00 0.00 20 1014.7
20260506205041 28 0 0.0 6.4 0.00 0.00 0.00 20 1014.7
20260506204551 28 0 0.0 9.7 0.00 0.00 0.00 20 1014.9
20260506204041 28 0 1.6 12.9 0.00 0.00 0.00 20 1014.9
20260506203540 28 316 1.6 12.9 0.00 0.00 0.00 20 1015.1
20260506203054 28 289 3.2 12.9 0.00 0.00 0.00 21 1014.9
20260506202541 28 312 0.0 6.4 0.00 0.00 0.00 21 1015.0
20260506202040 27 0 0.0 8.0 0.00 0.00 0.00 20 1015.1
20260506201552 27 0 0.0 8.0 0.00 0.00 0.00 21 1015.1
20260506201040 27 229 1.6 9.7 0.00 0.00 0.00 21 1015.1
20260506200541 27 0 0.0 9.7 0.00 0.00 0.00 21 1015.2
20260506200051 27 224 1.6 11.3 0.00 0.00 0.00 21 1015.3
20260506195541 27 0 1.6 16.1 0.00 0.00 0.00 21 1015.2
20260506195040 27 0 3.2 16.1 0.00 0.00 0.00 21 1015.4
20260506194550 27 265 4.8 14.5 0.00 0.00 0.00 21 1015.3
20260506194040 27 221 3.2 14.5 0.00 0.00 0.00 22 1015.5
20260506193540 27 226 0.0 14.5 0.00 0.00 0.00 21 1015.6
20260506193048 27 80 1.6 14.5 0.00 0.00 0.00 23 1015.7
20260506192540 26 214 8.0 12.9 0.00 0.00 0.00 22 1015.8
20260506192042 27 276 4.8 14.5 0.00 0.00 0.00 23 1015.7
20260506191549 26 108 4.8 14.5 0.00 0.00 0.00 23 1015.8
20260506191040 26 227 6.4 14.5 0.00 0.00 0.00 24 1015.9
20260506190540 26 296 3.2 14.5 0.00 0.00 0.00 24 1015.9
20260506190052 26 143 3.2 14.5 0.00 0.00 0.00 24 1015.9
20260506185540 26 278 6.4 14.5 0.00 0.00 0.00 23 1016.0
20260506185041 26 190 1.6 11.3 0.00 0.00 0.00 24 1015.9
20260506184550 26 125 3.2 12.9 0.00 0.00 0.00 24 1016.1
20260506184041 26 233 4.8 12.9 0.00 0.00 0.00 25 1016.0
20260506183540 26 293 4.8 12.9 0.00 0.00 0.00 24 1016.2
20260506183050 26 212 1.6 12.9 0.00 0.00 0.00 25 1016.2
20260506182539 26 268 3.2 12.9 0.00 0.00 0.00 25 1016.3
20260506182041 26 203 1.6 9.7 0.00 0.00 0.00 25 1016.4
20260506181549 26 117 3.2 12.9 0.00 0.00 0.00 26 1016.4
20260506181041 25 241 3.2 12.9 0.00 0.00 0.00 27 1016.5
20260506180545 25 206 1.6 8.0 0.00 0.00 0.00 27 1016.5
20260506180052 25 254 1.6 9.7 0.00 0.00 0.00 27 1016.4
20260506175540 25 171 1.6 9.7 0.00 0.00 0.00 28 1016.5
20260506175044 25 202 0.0 8.0 0.00 0.00 0.00 28 1016.5
20260506174556 25 257 1.6 8.0 0.00 0.00 0.00 28 1016.5
20260506174040 25 304 4.8 8.0 0.00 0.00 0.00 28 1016.5
20260506173540 25 207 1.6 11.3 0.00 0.00 0.00 29 1016.5
20260506173106 24 244 4.8 11.3 0.00 0.00 0.00 29 1016.6
20260506172540 24 0 1.6 9.7 0.00 0.00 0.00 29 1016.5
20260506172041 24 243 1.6 9.7 0.00 0.00 0.00 29 1016.5
20260506171551 23 245 1.6 8.0 0.00 0.00 0.00 30 1016.4
20260506171040 23 264 1.6 11.3 0.00 0.00 0.00 30 1016.5
20260506170539 23 295 1.6 11.3 0.00 0.00 0.00 31 1016.5
20260506170050 23 240 3.2 9.7 0.00 0.00 0.00 30 1016.5
20260506165540 23 205 1.6 9.7 0.00 0.00 0.00 32 1016.5
20260506165040 23 237 3.2 11.3 0.00 0.00 0.00 31 1016.6
20260506164548 22 198 1.6 11.3 0.00 0.00 0.00 33 1016.6
20260506164039 22 262 3.2 11.3 0.00 0.00 0.00 34 1016.6
20260506163546 22 236 1.6 11.3 0.00 0.00 0.00 35 1016.5
20260506163052 22 221 3.2 11.3 0.00 0.00 0.00 34 1016.6
20260506162542 22 279 4.8 11.3 0.00 0.00 0.00 35 1016.6
20260506162039 21 234 3.2 8.0 0.00 0.00 0.00 36 1016.5
20260506161553 21 245 3.2 8.0 0.00 0.00 0.00 36 1016.5
20260506161044 21 257 1.6 8.0 0.00 0.00 0.00 36 1016.4
20260506160540 20 227 1.6 9.7 0.00 0.00 0.00 37 1016.4
20260506160047 20 297 3.2 9.7 0.00 0.00 0.00 38 1016.5
20260506155540 20 248 3.2 9.7 0.00 0.00 0.00 36 1016.5
20260506155040 20 262 3.2 9.7 0.00 0.00 0.00 36 1016.5
20260506154557 20 287 1.6 9.7 0.00 0.00 0.00 37 1016.5
20260506154040 20 293 1.6 9.7 0.00 0.00 0.00 37 1016.5
20260506153542 20 198 3.2 9.7 0.00 0.00 0.00 37 1016.4
20260506153047 20 229 3.2 9.7 0.00 0.00 0.00 38 1016.5
20260506152539 19 245 1.6 9.7 0.00 0.00 0.00 39 1016.6
20260506152040 19 217 4.8 12.9 0.00 0.00 0.00 39 1016.6
20260506151549 19 217 4.8 12.9 0.00 0.00 0.00 39 1016.5
20260506151040 18 302 6.4 12.9 0.00 0.00 0.00 39 1016.6
20260506150539 18 239 4.8 11.3 0.00 0.00 0.00 40 1016.5
20260506150057 18 281 3.2 11.3 0.00 0.00 0.00 40 1016.4
20260506145542 18 240 3.2 9.7 0.00 0.00 0.00 41 1016.5
20260506145044 18 209 3.2 9.7 0.00 0.00 0.00 41 1016.5
20260506144602 17 269 3.2 8.0 0.00 0.00 0.00 41 1016.5
20260506144040 17 318 1.6 8.0 0.00 0.00 0.00 42 1016.5
20260506143542 17 266 1.6 9.7 0.00 0.00 0.00 42 1016.4